Location: Orange Harbor Mobile Home Park
(26.6923°N, 81.7937°W)
Time: 08:00:19
(UTC+00:00)

IRIDIUM 104 - Pass Details

Date: 19 September 2020
Orbit: 776 x 779 km, 86.4° (Epoch: 30 October)

Event Time Altitude Azimuth Distance (km) Brightness Sun altitude
Rises 09:51:47 0° 353° (N) 3,259 7.6 -19.2°
Reaches altitude 10° 09:54:10 10° 350° (N) 2,329 6.8 -18.7°
Maximum altitude 09:59:16 60° 272° (W) 889 4.3 -17.6°
Drops below altitude 10° 10:04:22 10° 193° (SSW) 2,316 6.6 -16.4°
Sets 10:06:44 0° 189° (S) 3,240 7.4 -15.9°
